Regional Weather Roundup
Issued by NWS

Home | Current Version | Previous Version | Graphics & Text | Print | Product List | Glossary On
Versions: 1 2 3 4 5 6 7 8 9 10 11 12 13 14 15 16 17 18 19 20 21 22 23 24 25 26 27 28 29 30 31 32 33 34 35 36 37 38 39 40 41 42 43 44 45 46 47 48 49 50
000
ASUS43 KLMK 271602
RWRKY
KENTUCKY REGIONAL WEATHER ROUNDUP
NATIONAL WEATHER SERVICE LOUISVILLE KY
1100 AM EST TUE JAN 27 2015

NOTE "FAIR" INDICATES FEW OR NO CLOUDS BELOW 12,000 FEET
WITH NO SIGNIFICANT WEATHER AND/OR OBSTRUCTIONS TO VISIBILITY.

KYZ001>023-026-027-061>063-070>075-271700-
WESTERN AND SOUTH CENTRAL KENTUCKY

CITY           SKY/WX    TMP DP  RH WIND       PRES   REMARKS
PADUCAH        MOSUNNY   41  33  73 N12       30.11R
HENDERSON      CLOUDY    34  28  80 N6        30.09R WCI  29
OWENSBORO      CLOUDY    33  32  96 N6        30.09R FOG     WCI  27
HOPKINSVILLE   CLOUDY    38  32  78 N13       30.07R WCI  30
BOWLING GREEN  CLOUDY    34  30  85 N6        30.07R FOG     WCI  29
GLASGOW        NOT AVBL
$$

KYZ024-025-028>034-038-045-046-053-271700-
NORTH CENTRAL KENTUCKY

CITY           SKY/WX    TMP DP  RH WIND       PRES   REMARKS
LOUISVILLE/SDF CLOUDY    32  27  81 N7        30.07R HAZE    WCI  26
LOUISVILLE/LOU CLOUDY    31  25  78 NE7       30.08R WCI  24
FORT KNOX      CLOUDY    30  27  89 N5        30.05R WCI  25
$$

KYZ035>037-039>044-047>052-055>060-089>105-271700-
NORTHEAST KENTUCKY

CITY           SKY/WX    TMP DP  RH WIND       PRES   REMARKS
LEXINGTON      PTSUNNY   27  21  78 N6        30.05R WCI  20
COVINGTON      CLOUDY    22  12  65 NE6       30.08R WCI  14
FRANKFORT      CLOUDY    27  21  78 NE6       30.06R WCI  20
$$

KYZ054-064>069-076>088-106>120-271700-
SOUTHEAST KENTUCKY

CITY           SKY/WX    TMP DP  RH WIND       PRES   REMARKS
JACKSON        CLOUDY    28  19  69 VRB5      29.99R WCI  23
LONDON         CLOUDY    30  23  75 NE7       30.00R WCI  23
SOMERSET       NOT AVBL
MIDDLESBORO    NOT AVBL
MONTICELLO     CLOUDY    31  29  92 N6        30.06R WCI  25
$$



USA.gov is the U.S. government's official web portal to all federal, state and local government web resources and services.